sat.trackr.live / text

‹ back to catalog

STARLINK-34443

NORAD 64296 · 2025-123F

PAYLOAD ACTIVE UNKNOWN

§ Identity

Operator
Country
US
Launch date
2025-06-08
Launch site
AFWTR
Launch vehicle
Mass (kg)
RCS (m²)

Purposes: comms

External: N2YO · Heavens-Above · Gunter

§ Orbital elements

Epoch: 2026-09-20T21:55:17.441184Z

Period
94.14 min
Inclination
69.9997°
Eccentricity
0.0004107
Mean motion
15.29587715 rev/d
Perigee alt
474.2 km
Apogee alt
479.9 km
Semi-major
6,855.2 km
B*
5.5505e-4
RAAN
59.7416°
Arg perigee
280.7455°
Mean anomaly
79.3258°
Rev number
7,214

§ Raw data

STARLINK-344431 64296U 25123F   26263.91339631  .00015867  00000+0  55505-3 0  99932 64296  69.9997  59.7416 0004107 280.7455  79.3258 15.29587715 72141

JSON: /api/v1/satellites/64296 · /tle

For live sub-satellite position, see the globe view (requires WebGL).

§ Visibility from observer

Set your observer location to see the next 7 days of passes ≥ 10°. The values pass through the URL so the page stays shareable.

No JS? Fill the form by hand. The geolocation button needs JavaScript.